Tracking 29018 objects as of 14-Jun-2024
HD Live streaming from Space Station
objects crossing your sky now

CINEMA

Track CINEMA now!
10-day predictions
CINEMA is classified as:


NORAD ID: 38764
Int'l Code: 2012-048G
Perigee: 472.5 km
Apogee: 630.7 km
Inclination: 64.7 °
Period: 95.5 minutes
Semi major axis: 6922 km
RCS: Unknown
Launch date: September 13, 2012
Source: United States (US)
Launch site: AIR FORCE WESTERN TEST RANGE (AFWTR)
Your satellite tracking list
Your tracking list is empty




NASA's NSSDC Master Catalog

Two Line Element Set (TLE):
1 38764U 12048G   24165.87222098  .00009295  00000-0  53848-3 0  9995
2 38764  64.6639 342.6816 0114256  19.5415 341.0029 15.07309294  5338
Source of the keplerian elements: AFSPC